Location: Central Falls
(41.8900°N, 71.3929°W)
Time: 08:00:05
(UTC+00:00)

Altair - Pass Details

Date: 08 December 2023
Orbit: 1501 x 1682 km, 47.2° (Epoch: 29 February)

Event Time Altitude Azimuth Distance (km) Brightness Sun altitude
Rises 11:43:00 0° 227° (SW) 4,871 9.9 -3.7°
Reaches altitude 10° 11:46:12 10° 224° (SW) 3,866 9.5 -3.1°
Maximum altitude 11:55:54 66° 145° (SE) 1,710 8.1 -1.6°
Drops below altitude 10° 12:05:15 10° 66° (ENE) 3,735 10.1 -0.1°
Sets 12:08:17 0° 64° (ENE) 4,699 10.5 0.4°
